FW8568 Weather Reports


Display with metric or nautical units.
time (UTC)temp
F
wind
direction
speed
MPH
gust
MPH
rain 1hr
in
rain 24hr
in
rain mn
in
humidity
%
barometer
mb
20260502221956 94 240 0.0 3.0 0.00 0.00 0.00 17 1009.5
20260502221452 94 267 2.0 4.0 0.00 0.00 0.00 18 1009.6
20260502220950 94 81 0.0 2.0 0.00 0.00 0.00 17 1009.7
20260502220445 95 92 2.0 3.0 0.00 0.00 0.00 17 1009.7
20260502215942 93 88 3.0 3.0 0.00 0.00 0.00 17 1009.9
20260502215440 95 223 3.0 3.0 0.00 0.00 0.00 17 1010.1
20260502214936 95 81 0.0 1.0 0.00 0.00 0.00 17 1010.3
20260502214433 94 54 0.0 2.0 0.00 0.00 0.00 18 1010.4
20260502213930 94 216 1.0 4.0 0.00 0.00 0.00 18 1010.5
20260502213427 95 273 2.0 2.0 0.00 0.00 0.00 16 1010.4
20260502212926 94 103 3.0 3.0 0.00 0.00 0.00 17 1010.6
20260502212424 93 52 0.0 3.0 0.00 0.00 0.00 17 1010.5
20260502211921 93 300 4.0 6.0 0.00 0.00 0.00 17 1010.6
20260502211417 93 292 2.0 5.0 0.00 0.00 0.00 18 1010.9
20260502210914 93 85 2.0 3.0 0.00 0.00 0.00 17 1010.7
20260502210411 94 131 0.0 3.0 0.00 0.00 0.00 17 1010.6
20260502205908 94 50 1.0 2.0 0.00 0.00 0.00 18 1010.6
20260502205404 93 111 2.0 3.0 0.00 0.00 0.00 18 1010.9
20260502204902 93 78 0.0 2.0 0.00 0.00 0.00 19 1010.9
20260502204358 93 247 2.0 3.0 0.00 0.00 0.00 18 1011.2
20260502203856 92 53 0.0 4.0 0.00 0.00 0.00 18 1011.3
20260502203354 92 268 2.0 3.0 0.00 0.00 0.00 18 1011.2
20260502202849 92 180 0.0 4.0 0.00 0.00 0.00 18 1011.5
20260502202347 92 323 0.0 2.0 0.00 0.00 0.00 19 1011.4
20260502201844 91 227 2.0 3.0 0.00 0.00 0.00 19 1011.4
20260502201340 92 23 1.0 3.0 0.00 0.00 0.00 19 1011.6
20260502200837 91 224 1.0 3.0 0.00 0.00 0.00 19 1011.6
20260502200332 91 50 2.0 4.0 0.00 0.00 0.00 19 1011.7
20260502195831 91 230 3.0 5.0 0.00 0.00 0.00 20 1011.7
20260502195327 91 109 2.0 3.0 0.00 0.00 0.00 19 1012.0
20260502194824 91 356 0.0 4.0 0.00 0.00 0.00 20 1012.1
20260502194321 91 150 0.0 5.0 0.00 0.00 0.00 21 1012.0
20260502193817 91 13 1.0 3.0 0.00 0.00 0.00 22 1012.0
20260502193314 91 72 0.0 3.0 0.00 0.00 0.00 22 1011.7
20260502192809 91 199 2.0 3.0 0.00 0.00 0.00 23 1012.2
20260502192307 91 25 2.0 3.0 0.00 0.00 0.00 22 1012.3
20260502191804 91 64 1.0 4.0 0.00 0.00 0.00 23 1012.1
20260502191302 91 60 0.0 3.0 0.00 0.00 0.00 23 1012.5
20260502190759 90 248 0.0 3.0 0.00 0.00 0.00 23 1012.3
20260502190256 91 263 2.0 4.0 0.00 0.00 0.00 22 1012.4
20260502185751 91 294 1.0 3.0 0.00 0.00 0.00 23 1012.6
20260502185247 91 115 1.0 5.0 0.00 0.00 0.00 23 1012.6
20260502184744 90 271 0.0 4.0 0.00 0.00 0.00 24 1012.6
20260502184239 90 116 1.0 3.0 0.00 0.00 0.00 25 1012.7
20260502183737 89 240 3.0 6.0 0.00 0.00 0.00 25 1012.8
20260502183232 89 282 1.0 6.0 0.00 0.00 0.00 25 1012.9
20260502182728 89 278 0.0 7.0 0.00 0.00 0.00 24 1013.1
20260502182223 90 155 2.0 6.0 0.00 0.00 0.00 25 1013.3
20260502181720 89 273 2.0 3.0 0.00 0.00 0.00 26 1013.2
20260502181220 89 289 0.0 3.0 0.00 0.00 0.00 27 1013.4
20260502180716 89 262 4.0 6.0 0.00 0.00 0.00 26 1013.4
20260502180214 88 135 1.0 4.0 0.00 0.00 0.00 26 1013.5
20260502170138 87 325 1.0 5.0 0.00 0.00 0.00 28 1013.8
20260502164124 86 243 2.0 5.0 0.00 0.00 0.00 28 1013.8
20260502163621 87 186 0.0 4.0 0.00 0.00 0.00 29 1013.8
20260502163117 88 255 3.0 4.0 0.00 0.00 0.00 27 1013.9
20260502162614 87 106 1.0 4.0 0.00 0.00 0.00 30 1014.0
20260502162111 86 333 0.0 3.0 0.00 0.00 0.00 29 1013.9
20260502161608 85 236 0.0 3.0 0.00 0.00 0.00 30 1013.8
20260502161105 85 257 3.0 6.0 0.00 0.00 0.00 29 1013.8
20260502160603 84 253 3.0 7.0 0.00 0.00 0.00 29 1014.0
20260502152016 89 202 0.0 1.0 0.00 0.00 0.00 24 1013.6
20260502151513 89 90 0.0 0.0 0.00 0.00 0.00 23 1013.3
20260502151010 89 154 0.0 1.0 0.00 0.00 0.00 23 1013.5
20260502150508 89 239 0.0 1.0 0.00 0.00 0.00 22 1013.4
20260502130353 64 287 1.0 1.0 0.00 0.00 0.00 38 1012.0
20260502123335 64 284 1.0 2.0 0.00 0.00 0.00 37 1011.6
20260502122833 64 253 2.0 2.0 0.00 0.00 0.00 37 1011.5
20260502122328 64 316 1.0 2.0 0.00 0.00 0.00 38 1011.7
20260502121827 64 308 0.0 2.0 0.00 0.00 0.00 38 1011.5
20260502121324 65 287 1.0 2.0 0.00 0.00 0.00 37 1011.4
20260502120821 65 284 0.0 2.0 0.00 0.00 0.00 37 1011.3
20260502120317 65 284 0.0 2.0 0.00 0.00 0.00 38 1011.4
20260502115815 65 308 0.0 2.0 0.00 0.00 0.00 36 1011.4
20260502115312 65 254 1.0 2.0 0.00 0.00 0.00 35 1011.4
20260502114808 65 289 0.0 2.0 0.00 0.00 0.00 35 1011.3
20260502114305 66 298 0.0 2.0 0.00 0.00 0.00 37 1011.3
20260502113802 66 312 1.0 2.0 0.00 0.00 0.00 35 1011.3
20260502113300 66 271 0.0 1.0 0.00 0.00 0.00 36 1011.3
20260502112757 66 268 0.0 1.0 0.00 0.00 0.00 34 1011.4
20260502112255 66 279 1.0 1.0 0.00 0.00 0.00 35 1011.3
20260502111752 66 331 0.0 1.0 0.00 0.00 0.00 34 1011.3
20260502111249 67 290 1.0 1.0 0.00 0.00 0.00 34 1011.0
20260502110747 67 258 0.0 2.0 0.00 0.00 0.00 34 1011.2
20260502110244 67 284 0.0 1.0 0.00 0.00 0.00 33 1011.2
20260502105742 68 262 1.0 1.0 0.00 0.00 0.00 32 1010.9
20260502105238 68 283 1.0 1.0 0.00 0.00 0.00 32 1011.2
20260502104736 68 294 0.0 1.0 0.00 0.00 0.00 32 1011.4
20260502104233 68 258 0.0 0.0 0.00 0.00 0.00 33 1011.2
20260502103731 69 317 0.0 0.0 0.00 0.00 0.00 33 1011.2
20260502103228 69 284 0.0 1.0 0.00 0.00 0.00 32 1011.3
20260502102725 69 284 0.0 1.0 0.00 0.00 0.00 32 1011.2
20260502102222 70 324 0.0 1.0 0.00 0.00 0.00 32 1011.2
20260502101720 70 296 0.0 0.0 0.00 0.00 0.00 31 1011.0
20260502101218 71 282 0.0 1.0 0.00 0.00 0.00 31 1010.6
20260502100715 71 276 1.0 1.0 0.00 0.00 0.00 31 1010.9
20260502100214 71 276 1.0 2.0 0.00 0.00 0.00 30 1010.7
20260502091148 71 339 0.0 2.0 0.00 0.00 0.00 32 1010.4
20260502090645 71 295 0.0 2.0 0.00 0.00 0.00 31 1010.6
20260502090142 72 257 0.0 1.0 0.00 0.00 0.00 31 1010.4
20260502080104 70 283 3.0 3.0 0.00 0.00 0.00 32 1010.3
20260502071038 72 286 0.0 1.0 0.00 0.00 0.00 27 1009.6
20260502070535 73 279 0.0 1.0 0.00 0.00 0.00 26 1009.6
20260502070033 73 245 0.0 1.0 0.00 0.00 0.00 26 1009.6
20260502065532 74 325 0.0 0.0 0.00 0.00 0.00 25 1009.6
20260502065029 74 319 0.0 2.0 0.00 0.00 0.00 25 1009.4
20260502064527 74 70 0.0 0.0 0.00 0.00 0.00 24 1009.6
20260502064024 74 284 0.0 0.0 0.00 0.00 0.00 26 1009.7
20260502063522 74 232 0.0 0.0 0.00 0.00 0.00 25 1009.7
20260502063020 75 232 0.0 0.0 0.00 0.00 0.00 24 1009.7
20260502062516 75 232 0.0 0.0 0.00 0.00 0.00 23 1009.6
20260502062015 75 256 0.0 0.0 0.00 0.00 0.00 23 1009.5
20260502061512 75 104 0.0 0.0 0.00 0.00 0.00 23 1009.5
20260502061009 76 271 0.0 1.0 0.00 0.00 0.00 23 1009.4
20260502060503 76 118 0.0 1.0 0.00 0.00 0.00 22 1009.5
20260502060001 76 129 0.0 1.0 0.00 0.00 0.00 23 1009.4
20260502055458 77 144 0.0 1.0 0.00 0.00 0.00 23 1009.2
20260502054958 77 232 0.0 1.0 0.00 0.00 0.00 23 1009.5
20260502054455 77 312 0.0 1.0 0.00 0.00 0.00 22 1009.5
20260502053952 77 150 0.0 2.0 0.00 0.00 0.00 23 1009.3
20260502053449 76 94 1.0 1.0 0.00 0.00 0.00 23 1009.2
20260502052947 75 245 0.0 0.0 0.00 0.00 0.00 24 1009.2
20260502052445 75 245 0.0 0.0 0.00 0.00 0.00 25 1009.2
20260502051943 75 77 0.0 0.0 0.00 0.00 0.00 27 1009.2
20260502051441 75 270 0.0 0.0 0.00 0.00 0.00 26 1009.1
20260502050938 75 270 0.0 0.0 0.00 0.00 0.00 27 1009.2
20260502050434 75 270 0.0 0.0 0.00 0.00 0.00 28 1009.1
20260502045931 76 270 0.0 0.0 0.00 0.00 0.00 25 1009.1
20260502045428 76 270 0.0 0.0 0.00 0.00 0.00 24 1008.9
20260502044925 76 270 0.0 0.0 0.00 0.00 0.00 24 1009.2
20260502044421 77 270 0.0 0.0 0.00 0.00 0.00 24 1009.0
20260502043918 77 250 0.0 0.0 0.00 0.00 0.00 24 1009.0
20260502043416 77 359 0.0 0.0 0.00 0.00 0.00 24 1009.1
20260502042915 77 359 0.0 0.0 0.00 0.00 0.00 24 1009.1
20260502042413 78 227 0.0 0.0 0.00 0.00 0.00 23 1009.0
20260502041910 78 349 0.0 1.0 0.00 0.00 0.00 24 1008.9
20260502041408 79 40 0.0 0.0 0.00 0.00 0.00 22 1009.0
20260502040904 79 40 0.0 0.0 0.00 0.00 0.00 22 1008.9
20260502040401 79 324 0.0 0.0 0.00 0.00 0.00 21 1008.8
20260502035857 80 324 0.0 0.0 0.00 0.00 0.00 21 1008.5
20260502035354 80 261 0.0 0.0 0.00 0.00 0.00 21 1008.9
20260502034851 80 232 0.0 0.0 0.00 0.00 0.00 21 1008.4
20260502034350 80 119 0.0 0.0 0.00 0.00 0.00 21 1008.6
20260502033848 80 245 0.0 0.0 0.00 0.00 0.00 21 1008.5
20260502033345 81 245 0.0 0.0 0.00 0.00 0.00 21 1008.2
20260502032841 81 359 0.0 0.0 0.00 0.00 0.00 21 1008.4
20260502032337 81 90 0.0 0.0 0.00 0.00 0.00 22 1008.5
20260502031835 81 87 0.0 0.0 0.00 0.00 0.00 22 1008.3
20260502031334 82 144 0.0 0.0 0.00 0.00 0.00 22 1008.1
20260502030832 82 144 0.0 1.0 0.00 0.00 0.00 21 1008.3
20260502030330 83 139 0.0 1.0 0.00 0.00 0.00 21 1008.2
20260502025826 83 157 0.0 0.0 0.00 0.00 0.00 21 1007.8
20260502025324 83 96 0.0 0.0 0.00 0.00 0.00 21 1007.8
20260502024822 83 104 0.0 2.0 0.00 0.00 0.00 20 1008.2
20260502024319 84 104 0.0 2.0 0.00 0.00 0.00 21 1007.8
20260502023817 84 330 0.0 1.0 0.00 0.00 0.00 21 1007.8
20260502023315 85 77 0.0 2.0 0.00 0.00 0.00 21 1007.6
20260502022812 85 98 0.0 2.0 0.00 0.00 0.00 20 1007.8
20260502022308 85 73 0.0 2.0 0.00 0.00 0.00 21 1008.0
20260502021805 86 75 1.0 2.0 0.00 0.00 0.00 20 1007.9
20260502021303 86 104 0.0 2.0 0.00 0.00 0.00 20 1007.6
20260502020800 87 77 0.0 2.0 0.00 0.00 0.00 20 1007.5
20260502020257 87 71 1.0 3.0 0.00 0.00 0.00 20 1007.6
20260502015754 89 87 1.0 2.0 0.00 0.00 0.00 19 1007.6
20260502015251 89 79 1.0 2.0 0.00 0.00 0.00 19 1007.4
20260502014748 88 74 3.0 3.0 0.00 0.00 0.00 19 1007.8
20260502014245 88 86 3.0 3.0 0.00 0.00 0.00 19 1007.5
20260502013741 88 77 3.0 4.0 0.00 0.00 0.00 19 1007.3
20260502013237 89 71 1.0 2.0 0.00 0.00 0.00 19 1007.6
20260502012734 89 85 1.0 2.0 0.00 0.00 0.00 20 1007.4
20260502012232 89 63 2.0 2.0 0.00 0.00 0.00 20 1007.3
20260502011729 89 46 1.0 3.0 0.00 0.00 0.00 19 1007.6
20260502011224 89 44 1.0 5.0 0.00 0.00 0.00 20 1007.5
20260502010723 91 104 3.0 4.0 0.00 0.00 0.00 19 1007.5
20260502010218 92 113 2.0 5.0 0.00 0.00 0.00 19 1007.5
20260502005716 91 92 3.0 5.0 0.00 0.00 0.00 19 1007.5
20260502005214 92 85 3.0 7.0 0.00 0.00 0.00 19 1007.6
20260502004709 92 103 2.0 5.0 0.00 0.00 0.00 19 1007.5
20260502004206 92 78 1.0 5.0 0.00 0.00 0.00 19 1007.8
20260502003704 92 84 3.0 6.0 0.00 0.00 0.00 19 1007.6
20260502003201 92 109 3.0 5.0 0.00 0.00 0.00 19 1007.8
20260502002657 92 80 0.0 6.0 0.00 0.00 0.00 19 1007.5
20260502002155 93 113 4.0 5.0 0.00 0.00 0.00 19 1007.9
20260502001652 93 76 3.0 4.0 0.00 0.00 0.00 19 1007.5
20260502001149 93 91 3.0 5.0 0.00 0.00 0.00 19 1007.8
20260502000647 93 95 3.0 5.0 0.00 0.00 0.00 19 1007.6
20260502000145 92 110 3.0 5.0 0.00 0.00 0.00 20 1007.8
20260501235641 91 112 4.0 6.0 0.00 0.00 0.00 20 1007.5
20260501235136 93 90 2.0 5.0 0.00 0.00 0.00 20 1007.8
20260501234632 93 89 3.0 4.0 0.00 0.00 0.00 19 1007.9
20260501234130 92 77 3.0 7.0 0.00 0.00 0.00 19 1007.8
20260501233628 93 100 3.0 4.0 0.00 0.00 0.00 20 1007.6
20260501233125 92 84 2.0 5.0 0.00 0.00 0.00 20 1008.1
20260501232620 92 116 4.0 5.0 0.00 0.00 0.00 21 1008.0
20260501232118 92 92 3.0 5.0 0.00 0.00 0.00 21 1008.0
20260501231616 92 100 4.0 6.0 0.00 0.00 0.00 21 1007.9
20260501231114 91 102 3.0 5.0 0.00 0.00 0.00 20 1007.8
20260501230612 90 139 2.0 6.0 0.00 0.00 0.00 21 1008.1
20260501230110 90 67 3.0 7.0 0.00 0.00 0.00 20 1007.9
20260501225607 90 98 4.0 8.0 0.00 0.00 0.00 20 1008.0
20260501225103 91 88 5.0 6.0 0.00 0.00 0.00 21 1008.1
20260501224601 90 103 3.0 5.0 0.00 0.00 0.00 21 1008.1
20260501224057 90 358 3.0 7.0 0.00 0.00 0.00 21 1008.2
20260501223554 90 78 3.0 6.0 0.00 0.00 0.00 23 1008.4
20260501223050 90 104 4.0 6.0 0.00 0.00 0.00 22 1008.6
20260501222547 90 113 3.0 9.0 0.00 0.00 0.00 23 1008.5
20260501222044 89 100 3.0 5.0 0.00 0.00 0.00 23 1008.5